Location: Newark
(51.0500°N, 12.4500°E)
Time: 02:27:11
(UTC+00:00)

Explorer 7 - Pass Details

Date: 19 February 2020
Orbit: 485 x 679 km, 50.3° (Epoch: 31 March)

Event Time Altitude Azimuth Distance (km) Brightness Sun altitude
Rises 17:57:21 0° 283° (WNW) 2,725 12.0 -14.0°
Reaches altitude 10° 17:59:55 10° 270° (W) 1,792 10.9 -14.4°
Maximum altitude 18:03:14 25° 215° (SW) 1,085 8.7 -14.9°
Drops below altitude 10° 18:06:25 10° 159° (SSE) 1,709 9.1 -15.4°
Enters shadow 18:06:59 - 155° (SSE) 1,896 9.3 -15.5°
